Weather in Khmilnyk

Ukraine / Vinnytsia Region     49°33′30″N   27°57′16″E
temp.,
°C
wind,
m/s
gust,
m/s
humid.,
%
clouds,
%
prec.,
mm/h
press.,
hPa
HPBL,
m
17 may, tue
tue1700:00+7nne228557 0.0 101916
03:00+6nnw227372 0.0 101912
06:00+8nw1171100 0.0 101810
09:00+13wnw2359100 0.0 1017357
12:00+17wnw574455 0.0 10161938
15:00+18nw694491 0.0 10152609
18:00+15nnw6957100 0.0 10141208
21:00+10nnw51253100 0.0 1015510
18 may, wed
wed1800:00+6nw41261100 0.0 1017312
03:00+4nnw612730 0.0 1018410
06:00+3nnw713835 0.0 1019585
09:00+6nnw71277100 0.0 1020994
12:00+7nnw7127495 0.1 10221274
15:00+11nnw81262100 0.1 10221580
18:00+12nnw7116372 0.1 10231759
21:00+10nnw497028 0.2 1025298
19 may, thu
thu1900:00+5nw34885 0.0 102758
03:00+4nw49915 0.0 1028158
06:00+4nw49935 0.0 1028167
09:00+11nw57676 0.0 1029569
12:00+15nw56525 0.0 10281388
15:00+17nw56465 0.0 10271581
18:00+17nw465439 0.0 10261417
21:00+11wnw3373100 0.0 102732
20 may, fri
fri2000:00+9w33785 0.0 102726
03:00+8w228231 0.0 102616
06:00+8wsw338082 0.0 102639
09:00+15sw4561100 0.0 1025364
12:00+19wsw5649100 0.0 1023893
15:00+21wsw6743100 0.0 10211303
18:00+21w5954100 0.0 1019924
21:00+15wsw487226 0.0 1018109
21 may, sat
sat2100:00+13wsw4876100 0.0 1016118
03:00+13wsw41182100 0.0 1015201
06:00+12wsw4117637 0.0 1013205
09:00+16wsw51464100 0.0 1012507
12:00+17wsw61267100 0.0 1011642
15:00+23wnw91359100 0.1 10091792
18:00+21wnw71169100 0.4 10091432
21:00+16wnw41086100 0.5 1010278